FW6905 Weather Reports


time (UTC)temp
F
wind
direction
speed
knots
gust
knots
rain 1hr
in
rain 24hr
in
rain mn
in
humidity
%
barometer
mb
20260507064507 61 259 1.7 3.5 0.00 1.04 0.00 94 1013.7
20260507064006 61 210 1.7 2.6 0.00 1.07 0.00 94 1013.7
20260507063505 60 189 0.0 1.7 0.00 1.12 0.00 94 1013.7
20260507063006 60 214 0.0 1.7 0.00 1.16 0.00 95 1013.7
20260507062506 59 206 1.7 1.7 0.00 1.20 0.00 95 1013.7
20260507062006 59 274 0.0 1.7 0.00 1.28 0.00 94 1013.7
20260507061505 59 327 0.9 1.7 0.00 1.28 0.00 94 1013.7
20260507061006 59 327 0.9 1.7 0.00 1.32 0.00 96 1013.7
20260507060505 59 314 0.0 1.7 0.00 1.37 0.00 96 1013.7
20260507060006 59 335 0.0 1.7 0.00 1.41 0.00 96 1013.7
20260507055506 58 73 0.0 1.7 0.00 1.41 0.00 96 1013.7
20260507055006 58 113 0.0 2.6 0.00 1.41 0.00 96 1013.7
20260507054006 58 86 1.7 2.6 0.00 1.41 0.00 96 1013.7
20260507053506 58 54 0.9 1.7 0.00 1.41 0.00 95 1013.7
20260507053006 58 39 0.0 1.7 0.00 1.41 0.00 95 1013.7
20260507052006 58 23 0.0 1.7 0.00 1.41 0.00 95 1013.7
20260507051006 57 25 0.9 1.7 0.00 1.41 0.00 95 1013.7
20260507050006 57 100 0.0 1.7 0.00 1.41 0.00 94 1013.7
20260507045505 57 88 0.9 2.6 0.00 1.41 0.00 94 1013.7
20260507044506 57 51 0.0 1.7 0.00 1.41 0.00 94 1013.7
20260507043506 58 0 0.0 0.0 0.00 1.41 0.00 94 1013.7
20260507043005 58 0 0.0 0.0 0.00 1.41 0.00 94 1013.7
20260507042506 58 292 0.0 1.7 0.00 1.41 0.00 94 1013.7
20260507042005 58 283 0.0 1.7 0.00 1.41 0.00 94 1013.7
20260507041506 58 18 0.0 1.7 0.00 1.41 0.00 94 1013.7
20260507041005 58 58 0.9 1.7 0.00 1.41 0.00 94 1013.7
20260507040506 58 86 1.7 1.7 0.00 1.41 0.00 94 1013.7
20260507040005 58 89 0.9 1.7 0.00 1.41 0.00 94 1013.7
20260507035506 58 85 0.0 2.6 0.00 1.41 0.00 94 1013.7
20260507034506 58 87 1.7 3.5 0.00 1.41 0.00 94 1013.7
20260507034006 58 65 1.7 3.5 0.00 1.41 0.00 94 1013.7
20260507033506 58 72 0.9 1.7 0.00 1.41 0.00 94 1013.7
20260507033005 58 77 0.0 2.6 0.00 1.41 0.00 94 1013.7
20260507032506 59 72 1.7 2.6 0.00 1.41 0.00 94 1013.7
20260507032005 59 86 1.7 3.5 0.00 1.41 0.00 94 1013.7
20260507030506 59 131 1.7 4.3 0.00 1.41 0.00 94 1013.7
20260507030005 59 172 1.7 4.3 0.00 1.41 0.00 94 1013.7
20260507025506 59 232 1.7 3.5 0.00 1.41 0.00 94 1013.7
20260507024506 59 278 1.7 2.6 0.00 1.41 0.00 94 1013.7
20260507024005 59 294 0.9 2.6 0.00 1.41 0.00 94 1013.7
20260507023506 59 270 0.9 7.0 0.00 1.41 0.00 95 1013.7
20260507023005 59 265 0.9 7.0 0.00 1.41 0.00 95 1013.7
20260507021506 59 251 1.7 3.5 0.00 1.41 0.00 96 1013.7
20260507021005 59 269 1.7 2.6 0.00 1.41 0.00 96 1012.7
20260507020506 59 19 0.0 1.7 0.00 1.41 0.00 96 1012.7
20260507020005 59 8 0.9 2.6 0.00 1.41 0.00 96 1012.7
20260507015506 59 248 0.9 2.6 0.00 1.41 0.00 96 1012.7
20260507015006 59 281 1.7 2.6 0.00 1.41 0.00 96 1012.7
20260507014505 59 293 0.0 4.3 0.00 1.41 0.00 96 1012.7
20260507014006 59 281 2.6 4.3 0.00 1.41 0.00 96 1013.7
20260507013505 59 262 3.5 4.3 0.00 1.41 0.00 95 1013.7
20260507013006 59 257 1.7 4.3 0.00 1.41 0.00 95 1013.7
20260507012505 59 247 1.7 3.5 0.00 1.41 0.00 95 1013.7
20260507012006 59 230 1.7 3.5 0.00 1.41 0.00 95 1013.7
20260507011506 59 258 1.7 4.3 0.00 1.41 0.00 96 1013.7
20260507011005 59 274 1.7 4.3 0.00 1.41 0.00 95 1012.7
20260507010506 59 270 2.6 4.3 0.00 1.41 0.00 95 1012.7
20260507010006 58 260 1.7 3.5 0.00 1.41 0.00 95 1012.7
20260507005006 59 272 1.7 3.5 0.00 1.45 0.00 95 1012.7
20260507004506 59 277 1.7 3.5 0.00 1.45 0.00 95 1012.7
20260507004005 58 267 2.6 3.5 0.00 1.49 0.00 95 1013.7
20260507003506 58 260 2.6 3.5 0.00 1.53 0.00 95 1013.7
20260507002505 58 269 2.6 3.5 0.00 1.66 0.00 95 1013.7
20260507001505 58 257 1.7 3.5 0.00 1.82 0.00 95 1013.7
20260507001006 58 256 0.9 3.5 0.00 1.82 0.00 95 1012.7
20260507000506 58 243 2.6 3.5 0.00 1.86 0.00 95 1012.7
20260507000006 58 247 1.7 3.5 0.00 1.86 0.00 95 1012.7
20260506235506 58 249 1.7 3.5 0.00 1.91 0.00 95 1013.7
20260506235005 58 236 1.7 3.5 0.00 1.91 0.00 95 1013.7
20260506234506 58 262 2.6 6.1 0.00 1.91 0.00 95 1013.7
20260506234005 58 266 1.7 6.1 0.00 1.91 0.00 95 1013.7
20260506233506 58 266 2.6 4.3 0.00 1.94 0.00 95 1013.7
20260506233006 58 260 1.7 4.3 0.00 1.99 0.00 95 1013.7
20260506232506 58 267 2.6 3.5 0.00 1.99 0.00 95 1013.7
20260506232019 58 285 2.6 3.5 0.00 2.03 0.00 95 1013.7
20260506231524 58 248 1.7 3.5 0.00 2.07 0.00 95 1013.7
20260506230507 58 241 1.7 4.3 0.00 2.07 0.00 95 1013.7
20260506225506 58 244 2.6 4.3 0.00 2.07 0.00 95 1013.7
20260506225005 58 278 1.7 7.0 0.00 2.07 0.00 95 1013.7
20260506224506 58 270 3.5 7.0 0.00 2.07 0.00 95 1013.7
20260506224005 58 238 2.6 5.2 0.00 2.07 0.00 95 1013.7
20260506223506 58 248 3.5 6.1 0.00 2.07 0.00 95 1013.7
20260506223005 58 269 3.5 7.0 0.00 2.07 0.00 95 1013.7
20260506222506 58 264 4.3 7.0 0.00 2.07 0.00 95 1012.7
20260506222005 58 248 3.5 4.3 0.00 2.07 0.00 95 1012.7
20260506221506 58 259 1.7 5.2 0.00 2.07 0.00 95 1012.7
20260506221005 58 264 3.5 5.2 0.00 2.07 0.00 95 1013.7
20260506220506 58 268 1.7 5.2 0.00 2.07 0.00 95 1013.7
20260506220011 58 265 3.5 5.2 0.00 2.07 0.00 95 1013.7
20260506215505 59 253 4.3 5.2 0.00 2.07 2.07 95 1013.7
20260506215006 59 263 1.7 2.6 0.00 2.07 2.07 95 1013.7
20260506214506 59 271 1.7 1.7 0.00 2.07 2.07 95 1013.7
20260506214006 59 271 1.7 2.6 0.00 2.07 2.07 95 1013.7
20260506213505 59 246 1.7 2.6 0.00 2.07 2.07 95 1013.7
20260506213006 59 245 0.0 3.5 0.00 2.07 2.07 95 1013.7
20260506212005 59 252 1.7 2.6 0.00 2.07 2.07 95 1013.7
20260506211506 59 234 1.7 2.6 0.00 2.07 2.07 94 1013.7
20260506211005 59 223 1.7 2.6 0.00 2.07 2.07 94 1013.7
20260506210506 59 233 1.7 2.6 0.00 2.07 2.07 94 1013.7
20260506205505 59 255 1.7 3.5 0.00 2.07 2.07 94 1013.7
20260506204506 60 244 1.7 4.3 0.00 2.07 2.07 94 1013.7
20260506204005 60 243 1.7 4.3 0.00 2.07 2.07 94 1013.7
20260506203506 60 250 1.7 3.5 0.00 2.07 2.07 94 1013.7
20260506203005 60 248 1.7 3.5 0.00 2.07 2.07 94 1013.7
20260506202506 60 249 1.7 3.5 0.00 2.07 2.07 94 1013.7
20260506202005 60 280 1.7 3.5 0.00 2.07 2.07 94 1013.7
20260506201505 60 277 2.6 4.3 0.00 2.07 2.07 94 1013.7
20260506201006 60 257 1.7 4.3 0.00 2.07 2.07 94 1013.7
20260506200505 60 248 3.5 4.3 0.00 2.07 2.07 95 1013.7
20260506200006 60 239 2.6 3.5 0.00 2.07 2.07 94 1013.7
20260506195505 60 253 1.7 3.5 0.00 2.07 2.07 94 1012.7
20260506195005 60 245 1.7 3.5 0.00 2.07 2.07 95 1012.7
20260506194506 60 235 2.6 3.5 0.00 2.07 2.07 95 1012.7
20260506194005 60 264 2.6 4.3 0.04 2.07 2.07 95 1012.7
20260506193005 60 226 2.6 3.5 0.08 2.07 2.07 95 1012.7
20260506192506 60 259 1.7 7.8 0.08 2.07 2.07 95 1012.7
20260506192005 60 280 2.6 7.8 0.12 2.07 2.07 94 1012.7
20260506191506 60 298 4.3 6.1 0.29 2.07 2.07 88 1012.7
20260506191005 60 291 1.7 6.1 0.33 2.07 2.07 88 1012.7
20260506190506 60 260 3.5 6.1 0.33 2.07 2.07 88 1012.7
20260506190006 60 255 0.0 5.2 0.33 2.07 2.07 88 1012.7
20260506185505 60 259 4.3 6.1 0.33 2.07 2.07 88 1011.7
20260506184505 60 98 0.0 3.5 0.33 2.07 2.07 87 1011.7
20260506184006 60 265 1.7 3.5 0.29 2.03 2.03 88 1011.7
20260506183505 60 9 1.7 1.7 0.29 2.03 2.03 87 1011.7
20260506183006 60 73 0.9 1.7 0.25 1.99 1.99 87 1011.7
20260506182506 60 196 1.7 2.6 0.25 1.99 1.99 87 1011.7
20260506182006 60 222 1.7 2.6 0.21 1.95 1.95 87 1011.7
20260506181505 60 248 1.7 2.6 0.04 1.78 1.78 87 1011.7
20260506180506 60 248 1.7 3.5 0.00 1.78 1.74 86 1011.7
20260506180006 61 270 1.7 2.6 0.12 1.78 1.74 86 1011.7
20260506175506 61 316 1.7 2.6 0.21 1.78 1.74 86 1011.7
20260506174506 61 158 1.7 6.1 0.25 1.78 1.74 86 1011.7
20260506173505 61 276 3.5 6.1 0.25 1.78 1.74 86 1011.7
20260506173006 61 272 3.5 7.8 0.25 1.78 1.74 86 1011.7
20260506172505 61 271 6.1 13.0 0.25 1.78 1.74 84 1011.7
20260506172005 61 267 7.8 13.0 0.25 1.78 1.74 86 1011.7
20260506171505 61 254 5.2 9.6 0.25 1.78 1.74 87 1011.7
20260506171006 61 257 3.5 10.4 0.25 1.78 1.74 88 1011.7
20260506170505 61 270 2.6 10.4 0.25 1.78 1.74 88 1011.7
20260506170006 61 290 3.5 5.2 0.13 1.66 1.62 88 1011.7
20260506165505 61 246 0.9 1.7 0.00 1.53 1.49 88 1011.7
20260506165006 61 194 0.9 1.7 0.00 1.53 1.49 88 1011.7
20260506164505 62 138 1.7 1.7 0.00 1.53 1.49 88 1011.7
20260506163505 62 58 1.7 1.7 0.00 1.53 1.49 88 1011.7
20260506163005 62 147 0.9 1.7 0.00 1.53 1.49 88 1011.7
20260506162506 62 127 0.0 1.7 0.00 1.53 1.49 88 1011.7
20260506162005 62 88 0.9 1.7 0.00 1.57 1.49 88 1011.7
20260506161505 62 68 0.0 1.7 0.00 1.57 1.49 88 1011.7
20260506161005 62 68 0.9 2.6 0.00 1.57 1.49 88 1010.7
20260506160506 62 58 1.7 2.6 0.00 1.57 1.49 88 1010.7
20260506155506 62 338 0.9 1.7 0.00 1.62 1.49 88 1011.7
20260506155006 62 250 0.0 1.7 0.00 1.62 1.49 88 1011.7
20260506154505 62 244 0.9 1.7 0.00 1.62 1.49 88 1011.7
20260506153505 62 262 1.7 1.7 0.00 1.62 1.49 89 1011.7
20260506152505 62 220 1.7 2.6 0.00 1.62 1.49 89 1012.7
20260506152006 61 217 1.7 2.6 0.00 1.62 1.49 88 1012.7
20260506151505 61 247 1.7 2.6 0.00 1.62 1.49 89 1012.7
20260506151005 61 291 0.9 2.6 0.00 1.66 1.49 89 1012.7
20260506150506 61 286 1.7 3.5 0.00 1.66 1.49 88 1012.7
20260506150005 61 269 1.7 3.5 0.00 1.66 1.49 88 1012.7
20260506145506 61 249 1.7 2.6 0.00 1.66 1.49 88 1012.7
20260506145006 61 249 1.7 2.6 0.00 1.66 1.49 88 1012.7
20260506144505 61 270 1.7 3.5 0.00 1.66 1.49 88 1012.7
20260506144006 61 292 2.6 3.5 0.00 1.66 1.49 88 1012.7
20260506143506 60 325 0.9 1.7 0.00 1.66 1.49 88 1012.7
20260506143005 60 90 0.0 1.7 0.00 1.66 1.49 88 1012.7
20260506142506 60 96 0.9 1.7 0.00 1.66 1.49 88 1012.7
20260506142005 60 335 0.0 1.7 0.00 1.66 1.49 88 1012.7
20260506140005 60 251 0.0 3.5 0.00 1.66 1.49 88 1012.7
20260506135505 60 246 0.0 3.5 0.00 1.66 1.49 88 1012.7
20260506135006 60 278 1.7 4.3 0.00 1.66 1.49 87 1012.7
20260506134505 60 290 1.7 4.3 0.00 1.66 1.49 87 1012.7
20260506133505 60 293 1.7 5.2 0.00 1.66 1.49 87 1013.7
20260506133005 60 308 2.6 5.2 0.04 1.66 1.49 88 1013.7
20260506132505 60 324 2.6 6.1 0.08 1.66 1.49 88 1013.7
20260506131505 60 349 3.5 5.2 0.08 1.66 1.49 88 1013.7
20260506131005 60 306 2.6 5.2 0.08 1.66 1.49 88 1013.7
20260506130505 60 320 3.5 5.2 0.08 1.66 1.49 88 1013.7
20260506130005 60 295 3.5 7.0 0.08 1.66 1.49 88 1013.7
20260506125005 59 300 3.5 7.0 0.12 1.66 1.49 88 1012.7
20260506124505 59 300 1.7 7.8 0.12 1.66 1.49 88 1012.7
20260506123505 59 300 3.5 5.2 0.08 1.66 1.45 88 1012.7
20260506123006 59 292 3.5 5.2 0.08 1.66 1.45 88 1012.7
20260506122505 59 280 2.6 3.5 0.04 1.62 1.41 88 1012.7
20260506122006 59 298 1.7 3.5 0.04 1.62 1.41 88 1012.7
20260506121505 59 274 1.7 4.3 0.08 1.62 1.41 88 1012.7
20260506121005 59 275 0.9 4.3 0.08 1.62 1.41 88 1013.7
20260506120006 59 290 3.5 3.5 0.08 1.62 1.41 88 1013.7
20260506115505 59 268 1.7 3.5 0.04 1.58 1.37 88 1013.7
20260506115005 59 266 1.7 4.3 0.04 1.58 1.37 88 1013.7
20260506114505 59 274 2.6 6.1 0.04 1.58 1.37 88 1013.7
20260506114005 59 272 1.7 7.8 0.04 1.58 1.37 88 1013.7
20260506113005 59 338 2.6 8.7 0.04 1.58 1.37 88 1013.7
20260506112506 59 332 3.5 6.1 0.04 1.58 1.37 88 1013.7
20260506112005 59 303 4.3 7.0 0.04 1.58 1.37 88 1013.7
20260506111505 59 296 5.2 7.0 0.04 1.54 1.33 88 1013.7
20260506110505 59 291 3.5 5.2 0.04 1.54 1.33 88 1013.7
20260506110005 59 279 3.5 5.2 0.04 1.54 1.33 88 1013.7
20260506105505 59 255 2.6 6.1 0.04 1.58 1.33 88 1014.7
20260506105005 59 256 3.5 6.1 0.04 1.58 1.33 88 1014.7
20260506104505 59 244 2.6 6.1 0.04 1.58 1.33 88 1014.7
20260506104005 59 253 1.7 5.2 0.04 1.58 1.33 88 1013.7
20260506103505 59 272 3.5 5.2 0.04 1.58 1.33 88 1013.7
20260506103005 60 273 1.7 5.2 0.04 1.58 1.33 88 1013.7
20260506102505 60 277 1.7 6.1 0.04 1.58 1.33 89 1013.7
20260506102005 60 296 2.6 6.1 0.04 1.58 1.33 89 1013.7
20260506101505 60 299 1.7 5.2 0.00 1.54 1.29 89 1013.7
20260506101005 60 295 3.5 5.2 0.00 1.58 1.29 89 1013.7
20260506100505 60 302 1.7 4.3 0.00 1.58 1.29 90 1013.7
20260506100006 60 281 1.7 5.2 0.00 1.58 1.29 90 1013.7
20260506095505 60 276 1.7 5.2 0.00 1.58 1.29 90 1013.7
20260506095006 60 304 1.7 7.8 0.00 1.58 1.29 91 1013.7
20260506094006 60 322 4.3 6.1 0.05 1.58 1.29 91 1013.7
20260506093505 60 338 2.6 3.5 0.05 1.58 1.29 91 1013.7
20260506093005 59 75 1.7 3.5 0.05 1.58 1.29 91 1013.7
20260506092505 59 72 1.7 3.5 0.05 1.58 1.29 91 1013.7
20260506092005 59 60 1.7 3.5 0.09 1.58 1.29 90 1013.7
20260506091505 59 58 1.7 3.5 0.09 1.58 1.29 91 1013.7
20260506091006 59 64 1.7 3.5 0.09 1.58 1.29 90 1013.7
20260506090505 59 94 1.7 2.6 0.13 1.58 1.29 91 1013.7
20260506090005 59 113 0.0 1.7 0.13 1.58 1.29 92 1013.7
20260506085505 59 62 0.0 1.7 0.17 1.58 1.29 92 1013.7
20260506085005 58 45 0.0 1.7 0.17 1.58 1.29 91 1013.7
20260506084506 58 45 1.7 1.7 0.12 1.53 1.24 91 1013.7
20260506084005 58 7 0.0 1.7 0.12 1.53 1.24 91 1013.7
20260506083505 58 240 0.0 3.5 0.12 1.53 1.24 91 1013.7
20260506083005 58 233 0.9 3.5 0.12 1.53 1.24 91 1013.7
20260506082005 58 253 1.7 1.7 0.12 1.49 1.20 91 1012.7
20260506081505 58 273 0.9 1.7 0.12 1.49 1.20 91 1012.7
20260506081005 58 276 1.7 2.6 0.12 1.49 1.20 91 1012.7
20260506080505 58 282 2.6 2.6 0.08 1.45 1.16 90 1012.7
20260506073004 58 192 0.0 1.7 0.21 1.41 1.12 91 1013.7
20260506072505 58 177 0.9 1.7 0.21 1.37 1.08 91 1013.7
20260506072005 57 134 0.9 1.7 0.29 1.37 1.08 91 1013.7
20260506071505 57 65 0.9 1.7 0.29 1.37 1.08 90 1013.7
20260506071005 57 14 0.0 2.6 0.33 1.37 1.08 90 1013.7
20260506070505 57 25 1.7 3.5 0.38 1.37 1.08 90 1013.7